Regional Weather Roundup
Issued by NWS

Home | Current Version | Previous Version | Graphics & Text | Print | Product List | Glossary On
Versions: 1 2 3 4 5 6 7 8 9 10 11 12 13 14 15 16 17 18 19 20 21 22 23 24 25 26 27 28 29 30 31 32 33 34 35 36 37 38 39 40 41 42 43 44 45 46 47 48 49 50
000
ASUS43 KFSD 230002
RWRSD

WEATHER ROUNDUP FOR SOUTH DAKOTA
NATIONAL WEATHER SERVICE SIOUX FALLS SD
700 PM CDT FRI SEP 22 2017

NOTE: "FAIR" INDICATES FEW OR NO CLOUDS BELOW 12,000 FEET WITH NO
SIGNIFICANT WEATHER AND/OR OBSTRUCTIONS TO VISIBILITY.


SDZ001>005-009-010-012>017-230100-
NORTHWEST AND NORTH CENTRAL SOUTH DAKOTA

CITY           SKY/WX    TMP DP  RH WIND       PRES   REMARKS
BUFFALO          N/A     50  35  56 N16       29.91R
FAITH            N/A     51  41  68 N20G26    29.91R
MOBRIDGE       CLOUDY    53  47  79 NW16      29.83R
$$

SDZ012>016-024>037-041>051-057-063-072>074-230100-
SOUTHWEST AND SOUTH CENTRAL SOUTH DAKOTA

CITY           SKY/WX    TMP DP  RH WIND       PRES   REMARKS
RAPID CTY ARPT NOT AVBL
PIERRE         PTCLDY    60  47  61 NW20G30   29.81S
CUSTER         PTCLDY    55  39  54 SE7       29.93R
ELLSWORTH AFB  CLOUDY    54  38  53 N16       29.92R
PHILIP         CLOUDY    59  43  55 N18       29.88R
PINE RIDGE     CLEAR     62  43  49 N14       29.88R
SPEARFISH      FAIR      50  37  62 NW7G13    29.97R
WINNER         FAIR      66  52  60 NW17      29.80R
$$

SDZ004>011-016>023-039-040-230100-
NORTHEAST SOUTH DAKOTA

CITY           SKY/WX    TMP DP  RH WIND       PRES   REMARKS
ABERDEEN       CLEAR     71  61  70 W16G23    29.70R
WATERTOWN      CLOUDY    78  64  61 SW8       29.71R
BROOKINGS      CLOUDY    76  62  62 S14G24    29.74R
SISSETON         N/A     82  64  54 W8        29.65R
$$

SDZ017-020-022-023-036>040-048>070-230100-
SOUTHEAST SOUTH DAKOTA

CITY           SKY/WX    TMP DP  RH WIND       PRES   REMARKS
SIOUX FALLS    MOCLDY    88  69  53 S15G23    29.73R
HURON          PTCLDY    75  57  53 NW18G24   29.72R
CHAMBERLAIN    PTCLDY    69  55  61 W17       29.78R
MITCHELL       CLOUDY    76  59  55 VRB3      29.73R
YANKTON        MOCLDY    88  67  49 S14       29.69R
$$

ABBREVIATIONS USED IN REMARKS
   TC - TEMPERATURE IN CELSIUS
  WCI - WIND CHILL INDEX
   HX - HEAT INDEX
  VSB - VISIBILITY





USA.gov is the U.S. government's official web portal to all federal, state and local government web resources and services.